Regional Weather Roundup
Issued by NWS

Home | Current Version | Previous Version | Graphics & Text | Print | Product List | Glossary On
Versions: 1 2 3 4 5 6 7 8 9 10 11 12 13 14 15 16 17 18 19 20 21 22 23 24 25 26 27 28 29 30 31 32 33 34 35 36 37 38 39 40 41 42 43 44 45 46 47 48 49 50
000
ASUS43 KLOT 010810
RWRIL

ILLINOIS REGIONAL WEATHER ROUNDUP
NATIONAL WEATHER SERVICE CHICAGO/ROMEOVILLE IL
300 AM CDT FRI AUG 01 2014

NOTE: "FAIR" INDICATES FEW OR NO CLOUDS BELOW 12,000 FEET WITH NO
SIGNIFICANT WEATHER AND/OR OBSTRUCTIONS TO VISIBILITY.

* THESE STATIONS ARE NOT UNDER NWS QUALITY CONTROL. THEY ALSO MAY NOT
  REPORT WEATHER SUCH AS PRECIPITATION OR FOG.

ILZ001-002-007-009-015-016-024-010900-
NORTHWEST ILLINOIS

CITY           SKY/WX    TMP DP  RH WIND       PRES   REMARKS
MOLINE         MOCLDY    67  61  81 CALM      30.05S
STERLING*      PTCLDY    61  57  88 CALM      30.06S
SAVANNA*       MOCLDY    62  59  91 CALM      30.05S
$$

ILZ003-004-008-010-011-017-018-010900-
NORTH CENTRAL ILLINOIS

CITY           SKY/WX    TMP DP  RH WIND       PRES   REMARKS
ROCKFORD       PTCLDY    61  57  87 S3        30.07S
FREEPORT*      PTCLDY    60  58  92 CALM      30.08R
ROCHELLE*      CLEAR     57  55  94 CALM      30.06S
DE KALB*       CLEAR     63  56  79 SW3       30.07S
PERU*          PTCLDY    64  62  91 SW3       30.07S
$$

ILZ005-006-012>014-019>023-010900-
NORTHEAST ILLINOIS

CITY           SKY/WX    TMP DP  RH WIND       PRES   REMARKS
CHICAGO-OHARE  CLEAR     66  58  75 W6        30.05R
CHICAGO-MIDWAY PTCLDY    70  62  76 SW6       30.05S
AURORA         CLOUDY    60  56  86 CALM      30.07R
LANSING*       MOCLDY    62  60  94 CALM      30.06S
JOLIET*        PTCLDY    60  59  96 CALM      30.07S FOG
WAUKEGAN       PTCLDY    65  57  75 CALM      30.03S
DUPAGE AIRPORT CLEAR     61  59  93 S3        30.06R
KANKAKEE*      CLEAR     61  59  93 CALM      30.07S
WHEELING       CLEAR     65  58  78 CALM      30.06R
MORRIS*        MOCLDY    63  63 100 CALM      30.06S FOG
ROMEOVILLE*    MOCLDY    62  61  96 SW3       30.07R FOG
NORTHERLY ISL    N/A     71  60  68 W5          N/A
$$

LMZ740>746-010900-
SOUTHERN LAKE MICHIGAN

STATION/POSITION SKY/WX   TEMP    WIND        PRES    VSBY  WAVE
                          AIR SEA DIR/SP/G                  HT/PER
                          (F)     (DEG/KT/KT) (MB)    (MI)  (FT/S)
SOUTHERN BUOY              65 62  230/  8/ 10 1016.7R         0
WAUKEGAN HARBOR            68     270/  9/ 11   N/A
HARRISON CRIB              72     250/  9/ 10   N/A
BURNHAM HARBOR             71     230/  2/  6   N/A
CALUMET HARBOR             69     220/  3/  4 1016.5S
MICHIGAN CITY              68     180/  8/  9   N/A
MICHIGAN CITY 6N           69 69  210/  8/ 10   N/A           1
ST. JOSEPH                 69 69  180/  8/ 10   N/A           1
$$

ILZ025>027-034>036-040-047-049-050-058-095>099-010900-
WEST-CENTRAL ILLINOIS

CITY           SKY/WX    TMP DP  RH WIND       PRES   REMARKS
QUINCY         PTCLDY    66  59  78 SE5       30.06S
GALESBURG*     LGT RAIN  64  62  94 CALM      30.07S
MACOMB*        MOCLDY    63  62  96 CALM      30.08S
JACKSONVILLE*  CLEAR     62  60  93 CALM      30.08S
PITTSFIELD*    PTCLDY    61  58  91 CALM      30.08S
$$

ILZ028>032-037-038-041>044-048-051>054-059>061-010900-
CENTRAL ILLINOIS

CITY           SKY/WX    TMP DP  RH WIND       PRES   REMARKS
PONTIAC        PTCLDY    61  59  94 CALM      30.07S FOG
DECATUR        PTCLDY    60  57  89 NE3       30.07S
PEORIA         CLOUDY    68  62  81 CALM      30.07S
LACON*         MOCLDY    62  60  92 CALM      30.06R
LINCOLN*       MOCLDY    63  60  90 CALM      30.05S
SPRINGFIELD    CLEAR     61  59  93 CALM      30.08S
TAYLORVILLE    CLEAR     61  59  94 CALM      30.07S
$$

ILZ033-039-045-046-055>057-062-063-010900-
EAST-CENTRAL ILLINOIS

CITY           SKY/WX    TMP DP  RH WIND       PRES   REMARKS
CHAMPAIGN      PTCLDY    62  59  90 CALM      30.08S
DANVILLE*        N/A     56  55  99 CALM      30.06R FOG
RANTOUL*       PTCLDY    63  59  86 CALM      30.09S
MATTOON        MOCLDY    67  63  87 S3        30.07S
PARIS*         PTCLDY    57  57  97 CALM      30.08S
$$

ILZ079-100>102-010900-
SOUTHWEST ILLINOIS

CITY           SKY/WX    TMP DP  RH WIND       PRES   REMARKS
ALTON          CLEAR     62  62 100 CALM      30.07R
BELLEVILLE     CLEAR     64  64 100 CALM      30.06R FOG
CAHOKIA*       MOCLDY    64  62  93 S3        30.06S
SPARTA*        CLEAR     64  63  94 CALM      30.07S
$$

ILZ064>066-069>071-074>076-080>082-084>086-088>090-092>094-010900-
SOUTH-CENTRAL ILLINOIS

CITY           SKY/WX    TMP DP  RH WIND       PRES   REMARKS
CARBONDALE     CLEAR     61  59  93 CALM      30.07S
CAIRO*         MOCLDY    63  61  92 CALM      30.07R FOG
EFFINGHAM*     CLEAR     62  59  88 CALM      30.08S
MARION         CLEAR     64  63  94 S3        30.07S FOG
MT. VERNON     CLEAR     59  54  82 CALM      30.08S
CENTRALIA*       N/A     58  56  94 CALM      30.07S FOG
SALEM*         CLEAR     63  62  96 CALM      30.08S FOG
METROPOLIS*    CLEAR     60  59  96 CALM      30.06S FOG
$$

ILZ067-068-072-073-078-083-087-091-010900-
SOUTHEAST ILLINOIS

CITY           SKY/WX    TMP DP  RH WIND       PRES   REMARKS
LAWRENCEVILLE  CLEAR     63  61  93 CALM      30.07S FOG
FLORA*         CLEAR     62  60  94 CALM      30.08R
FAIRFIELD*     CLEAR     61  61 100 CALM      30.07S FOG
HARRISBURG*    FOG       62  62 100 CALM      30.08S VSB 1/4
ROBINSON*      CLEAR     58  58  98 CALM      30.09R FOG
CARMI*         PTCLDY    63  63 100 CALM      30.07S FOG
$$

ABBREVIATIONS USED IN REMARKS
   TC - TEMPERATURE IN CELSIUS
  WCI - WIND CHILL INDEX
   HX - HEAT INDEX
  VSB - VISIBILITY
$$




USA.gov is the U.S. government's official web portal to all federal, state and local government web resources and services.